FW3754 Weather Reports


Display with metric or nautical units.
time (UTC)temp
F
wind
direction
speed
MPH
gust
MPH
rain 1hr
in
rain 24hr
in
rain mn
in
humidity
%
barometer
mb
20260905061543 78 119 0.0 0.0 0.00 0.00 0.00 95 1013.8
20260905060041 78 119 0.0 0.0 0.00 0.00 0.00 95 1014.0
20260905054549 78 119 0.0 0.0 0.00 0.00 0.00 95 1014.2
20260905053043 78 119 0.0 0.0 0.00 0.00 0.00 95 1014.3
20260905051542 78 119 0.0 0.0 0.00 0.00 0.00 95 1014.4
20260905050043 78 119 0.0 0.0 0.00 0.00 0.00 95 1014.7
20260905044534 78 119 0.0 0.0 0.00 0.00 0.00 95 1014.5
20260905043034 78 119 0.0 0.0 0.00 0.00 0.00 95 1014.6
20260905041534 78 119 0.0 0.0 0.00 0.00 0.00 94 1014.5
20260905040031 78 119 0.0 0.0 0.00 0.00 0.00 94 1014.6
20260905034537 78 119 0.0 0.0 0.00 0.00 0.00 94 1014.7
20260905033035 78 119 0.0 0.0 0.00 0.00 0.17 94 1014.7
20260905031534 78 119 0.0 0.0 0.00 0.00 0.17 94 1015.0
20260905030033 78 119 0.0 0.0 0.00 0.00 0.17 94 1015.0
20260905024529 79 119 0.0 0.0 0.00 0.00 0.17 93 1015.0
20260905023032 79 119 0.0 0.0 0.00 0.00 0.17 93 1015.1
20260905021528 79 119 0.0 0.0 0.00 0.00 0.17 94 1015.1
20260905020028 79 180 0.0 0.0 0.00 0.00 0.17 93 1014.9
20260905014525 79 180 0.0 0.0 0.00 0.00 0.17 93 1014.9
20260905013027 79 180 0.0 0.0 0.00 0.00 0.17 93 1014.9
20260905011525 79 180 0.0 0.0 0.00 0.00 0.17 93 1014.8
20260905010024 79 180 0.0 0.0 0.00 0.00 0.17 92 1014.5
20260905004526 79 180 0.0 0.0 0.00 0.00 0.17 92 1014.3
20260905003024 79 192 1.0 0.0 0.00 0.00 0.17 92 1014.1
20260905001524 79 184 0.0 0.0 0.00 0.00 0.17 92 1013.8
20260905000024 79 184 0.0 0.0 0.00 0.00 0.17 92 1013.7
20260904234535 79 329 0.0 0.0 0.00 0.00 0.17 91 1013.5
20260904233022 80 329 0.0 0.0 0.00 0.00 0.17 91 1013.5
20260904231522 79 329 0.0 0.0 0.00 0.00 0.17 91 1013.5
20260904230021 79 329 0.0 0.0 0.00 0.00 0.17 90 1013.5
20260904224521 79 330 0.0 0.0 0.00 0.00 0.17 90 1013.7
20260904223021 80 329 0.0 0.0 0.00 0.00 0.17 89 1013.6
20260904221521 79 329 0.0 0.0 0.00 0.00 0.17 90 1013.7
20260904220020 79 167 0.0 0.0 0.00 0.00 0.17 90 1013.9
20260904214522 79 167 0.0 0.0 0.00 0.00 0.17 90 1014.0
20260904213022 78 150 0.0 0.0 0.00 0.00 0.17 90 1014.1
20260904211519 78 296 0.0 0.0 0.00 0.00 0.17 91 1014.1
20260904210019 78 78 0.0 0.0 0.00 0.00 0.17 91 1014.0
20260904204517 78 78 0.0 0.0 0.00 0.00 0.17 91 1014.2
20260904203022 78 42 0.0 0.0 0.00 0.00 0.17 91 1014.5
20260904201517 78 347 0.0 0.0 0.00 0.00 0.16 90 1014.4
20260904200017 78 331 1.0 0.0 0.00 0.00 0.14 90 1014.4
20260904194515 78 65 3.0 0.0 0.00 0.00 0.14 89 1014.8
20260904193014 78 67 2.0 0.0 0.00 0.00 0.14 89 1015.1
20260904191518 78 28 2.0 0.0 0.00 0.00 0.14 87 1015.0
20260904190015 78 346 1.0 0.0 0.00 0.00 0.14 88 1015.1
20260904184510 79 33 3.0 0.0 0.00 0.00 0.14 85 1015.5
20260904183011 81 9 5.0 0.0 0.00 0.00 0.11 80 1015.2
20260904181509 85 360 6.0 0.0 0.00 0.00 0.11 75 1015.6
20260904180007 90 300 2.0 0.0 0.00 0.00 0.11 78 1015.3
20260904174506 88 273 1.0 0.0 0.00 0.00 0.11 77 1015.0
20260904173006 87 219 1.0 0.0 0.00 0.00 0.11 80 1015.3
20260904171504 84 236 1.0 0.0 0.00 0.00 0.11 82 1015.3
20260904170004 83 257 1.0 0.0 0.00 0.00 0.11 83 1015.7
20260904164504 83 235 1.0 0.0 0.00 0.00 0.11 80 1015.6
20260904163003 85 276 4.0 0.0 0.00 0.00 0.11 76 1015.7
20260904161503 88 278 3.0 0.0 0.00 0.00 0.11 73 1016.2
20260904160005 90 262 1.0 0.0 0.00 0.00 0.11 74 1016.1
20260904154600 88 344 1.0 0.0 0.00 0.00 0.11 76 1016.2
20260904153057 85 148 1.0 0.0 0.00 0.00 0.11 81 1016.0
20260904151551 84 169 0.0 0.0 0.00 0.00 0.11 84 1016.0
20260904150048 83 169 0.0 0.0 0.00 0.00 0.11 87 1015.9
20260904144544 81 33 0.0 0.0 0.00 0.00 0.11 88 1015.6
20260904143042 81 33 0.0 0.0 0.00 0.00 0.11 89 1015.7
20260904141541 80 309 1.0 0.0 0.00 0.00 0.11 91 1015.7
20260904140058 80 289 1.0 0.0 0.00 0.00 0.11 92 1015.6
20260904134543 79 319 2.0 0.0 0.00 0.00 0.11 92 1015.4
20260904133040 80 292 1.0 0.0 0.00 0.00 0.11 93 1015.5
20260904131543 80 284 1.0 0.0 0.00 0.00 0.11 93 1015.3
20260904130048 80 273 0.0 0.0 0.00 0.00 0.11 92 1015.1
20260904124537 80 309 2.0 0.0 0.00 0.00 0.10 90 1015.0
20260904123032 80 282 3.0 0.0 0.00 0.00 0.00 88 1014.9
20260904121532 80 267 2.0 0.0 0.00 0.00 0.00 90 1014.8
20260904120031 80 279 2.0 0.0 0.00 0.00 0.00 93 1014.8
20260904114529 79 298 0.0 0.0 0.00 0.00 0.00 94 1014.6
20260904113033 79 298 0.0 0.0 0.00 0.00 0.00 94 1014.4
20260904111537 79 298 0.0 0.0 0.00 0.00 0.00 94 1014.3
20260904110027 79 298 0.0 0.0 0.00 0.00 0.00 94 1014.2
20260904104532 79 298 0.0 0.0 0.00 0.00 0.00 93 1013.9
20260904103027 79 298 0.0 0.0 0.00 0.00 0.00 94 1013.6
20260904101525 79 298 0.0 0.0 0.00 0.00 0.00 94 1013.6
20260904100025 79 298 0.0 0.0 0.00 0.00 0.00 94 1013.4
20260904094524 79 298 0.0 0.0 0.00 0.00 0.00 94 1013.2
20260904093024 79 355 0.0 0.0 0.00 0.00 0.00 94 1013.2
20260904091524 79 355 0.0 0.0 0.00 0.00 0.00 94 1013.2
20260904090030 79 355 0.0 0.0 0.00 0.00 0.00 93 1013.2
20260904084523 79 355 0.0 0.0 0.00 0.00 0.00 93 1013.1
20260904083022 79 355 0.0 0.0 0.00 0.00 0.00 93 1013.1
20260904081521 79 355 0.0 0.0 0.00 0.00 0.00 93 1013.1
20260904080020 79 355 0.0 0.0 0.00 0.00 0.00 92 1013.0
20260904074523 80 355 0.0 0.0 0.00 0.00 0.00 92 1012.9
20260904073018 80 355 0.0 0.0 0.00 0.00 0.00 91 1012.9
20260904071517 80 355 0.0 0.0 0.00 0.00 0.00 91 1013.1
20260904070016 80 355 0.0 0.0 0.00 0.00 0.00 91 1013.1
20260904064514 80 355 0.0 0.0 0.00 0.00 0.00 90 1013.1
20260904063013 81 355 0.0 0.0 0.00 0.00 0.00 89 1013.2